Location: College Rock
(37.2713°N, 119.1740°W)
Time: 13:32:33
(UTC+00:00)

H-2A R/B - Pass Details

Date: 29 October 2020
Orbit: 500 x 540 km, 97.3° (Epoch: 28 November)

Event Time Altitude Azimuth Distance (km) Brightness Sun altitude
Rises 13:11:58 0° 19° (NNE) 2,655 6.5 -13.8°
Reaches altitude 10° 13:14:09 10° 26° (NNE) 1,769 5.6 -13.4°
Maximum altitude 13:17:47 43° 99° (E) 756 4.1 -12.7°
Drops below altitude 10° 13:21:27 10° 171° (S) 1,777 5.6 -12.0°
Sets 13:23:39 0° 178° (S) 2,668 6.5 -11.5°
